MDT,Max TemperatureF,Mean TemperatureF,Min TemperatureF,Max Dew PointF,MeanDew PointF,Min DewpointF,Max Humidity, Mean Humidity, Min Humidity, Max Sea Level PressureIn, Mean Sea Level PressureIn, Min Sea Level PressureIn, Max VisibilityMiles, Mean VisibilityMiles, Min VisibilityMiles, Max Wind SpeedMPH, Mean Wind SpeedMPH, Max Gust SpeedMPH,PrecipitationIn, CloudCover, Events, WindDirDegrees
2013-3-1,39,26,12,25,19,8,85,70,48,30.41,30.36,30.28,10,10,10,21,8,29,0.00,3,,311
2013-3-2,54,39,24,30,24,18,92,66,28,30.35,30.24,30.07,10,10,10,7,8,8,0.00,1,,306
2013-3-3,59,43,26,31,25,19,92,59,21,30.03,29.77,29.57,10,10,10,14,4,15,0.00,0,,11
2013-3-4,34,24,12,28,20,7,93,79,57,30.29,29.93,29.63,10,10,9,24,13,40,0.04,5,Snow,355
2013-3-5,38,21,3,20,13,0,85,69,44,30.46,30.35,30.23,10,10,10,17,6,25,0.00,0,,185
2013-3-6,56,35,13,26,20,11,92,67,28,30.20,30.02,29.86,10,10,10,16,5,20,0.00,0,,121
2013-3-7,64,44,24,28,21,13,85,50,14,29.96,29.89,29.82,10,10,10,13,7,15,0.00,0,,88
2013-3-8,54,39,24,34,30,22,92,70,48,29.91,29.78,29.57,10,10,9,16,7,20,0.00,0,,352
2013-3-9,33,26,19,31,27,14,100,91,81,30.08,29.72,29.53,10,3,0,43,19,53,0.17,7,Fog-Snow,342
2013-3-10,31,25,18,21,17,12,100,77,53,30.17,30.08,30.01,10,5,0,36,21,48,0.02,4,Fog,337
2013-3-11,49,32,14,31,23,11,100,67,34,30.11,30.04,29.91,10,10,8,24,11,30,0.01,4,Snow,348
2013-3-12,40,31,22,28,24,19,100,80,59,30.36,30.25,30.12,10,9,2,18,9,25,0.01,5,Snow,332
2013-3-13,60,41,21,30,26,21,100,62,24,30.29,30.24,30.19,10,10,10,10,3,13,0.00,0,,28
2013-3-14,66,48,29,30,26,20,92,55,18,30.30,30.18,30.04,10,10,10,13,5,17,0.00,0,,319
2013-3-15,71,49,27,33,28,17,92,53,14,30.05,29.91,29.79,10,10,10,16,5,20,0.00,0,,353
2013-3-16,50,40,30,31,28,24,75,57,39,29.99,29.88,29.79,10,10,10,29,10,36,T,3,,159
2013-3-17,62,42,22,29,22,6,92,52,12,29.85,29.67,29.42,10,10,10,36,12,40,T,1,,171
2013-3-18,51,35,18,15,10,6,77,48,19,29.99,29.90,29.81,10,10,10,23,11,29,0.00,2,,309
2013-3-19,50,33,16,18,10,-2,84,48,11,30.35,30.12,29.95,10,10,10,35,11,40,0.06,0,,5
2013-3-20,47,27,7,20,13,5,92,59,25,30.37,30.11,29.79,10,10,10,23,7,29,0.00,0,,181
2013-3-21,57,38,19,36,28,17,100,65,30,29.83,29.69,29.46,10,7,1,39,9,45,0.11,6,Rain-Snow-Thunderstorm,348
2013-3-22,46,33,19,31,24,15,100,69,37,29.91,29.80,29.66,10,6,0,31,10,38,0.12,5,Fog-Snow,47
2013-3-23,25,16,7,25,17,5,100,90,80,30.29,29.92,29.78,10,1,0,17,20,20,0.26,8,Fog-Snow,358
2013-3-24,25,9,-7,11,5,-6,95,75,55,30.37,30.27,30.14,10,9,4,15,7,20,T,1,Snow,322
2013-3-25,25,12,-1,12,4,-4,96,73,50,30.46,30.39,30.17,10,10,10,18,7,24,0.00,1,,317
2013-3-26,41,21,0,29,15,-3,87,64,40,30.39,30.17,30.01,10,10,10,15,6,18,0.00,2,,177
2013-3-27,47,34,21,36,28,19,92,71,49,30.15,30.08,30.00,10,9,4,9,7,12,0.00,1,,357
2013-3-28,61,44,26,37,31,25,92,62,32,30.12,30.08,29.99,10,10,10,13,6,15,0.00,1,,138
2013-3-29,65,46,27,38,32,27,100,63,26,30.13,30.05,29.98,10,10,8,20,3,24,0.00,0,,337
2013-3-30,63,48,33,42,33,28,85,56,27,30.12,30.04,29.92,10,10,10,29,6,35,T,2,Rain,337
2013-3-31,68,46,23,35,27,17,100,57,14,30.14,30.00,29.86,10,10,10,23,6,28,0.00,0,,336